Weather History for Millville, NJ

Change the Weather History Date:

Tuesday, May 13, 2014

  Actual Average Record
Temperature  
Mean Temperature 68 °F -  
Max Temperature 81 °F 73 °F 89 °F (1956)
Min Temperature 54 °F 50 °F 33 °F (1967)
Cooling Degree Days 2    
Growing Degree Days 18 (Base 50)    
Moisture  
Dew Point 56 °F    
Average Humidity 73    
Maximum Humidity 97    
Minimum Humidity 55    
Precipitation  
Precipitation 0.00 in - - ()
Sea Level Pressure  
Sea Level Pressure 30.13 in    
Wind  
Wind Speed 4 mph (ENE)    
Max Wind Speed 17 mph    
Max Gust Speed -    
Visibility 7 miles    
Events      
Averages and records for this station are not official NWS values.
T = Trace of Precipitation, MM = Missing Value Source: NWS Daily Summary

Daily Weather History Graph

Daily Weather History Graph

Search for Another Location

Airport:

Trip Planner

Search our weather history database for the weather conditions in past years. The results will help you decide how hot, cold, wet, or windy it might be!

Date:

Astronomy

May. 13, 2014 Rise Set
Actual Time 5:48 AM EDT 8:05 PM EDT
Civil Twilight 5:18 AM EDT 8:35 PM EDT
Nautical Twilight 4:41 AM EDT 9:12 PM EDT
Astronomical Twilight 4:00 AM EDT 9:53 PM EDT
Moon 7:04 PM EDT (5/13) 5:02 AM EDT (5/13)
Length of Visible Light 15h 17m
Length of Day
14h 16m
Waxing Gibbous, 98% of the Moon is Illuminated
May 13
Waxing Gibbous
May 14
Full
May 21
Last Quarter
May 28
New
Jun 5
First Quarter

Hourly Weather History & Observations

Time (EDT) Temp. Heat Index Dew Point Humidity Pressure Visibility Wind Dir Wind Speed Gust Speed Precip Events Conditions
12:54 AM - - - N/A% 30.07 in 5.0 mi Calm Calm - N/A   Haze
2:54 AM - - - N/A% 30.03 in 7.0 mi Calm Calm - N/A   Clear
3:34 AM - - - N/A% 30.04 in 1.8 mi Calm Calm - N/A   Clear
3:43 AM - - - N/A% 30.04 in 3.0 mi Calm Calm - N/A   Clear
3:54 AM - - - N/A% 30.04 in 7.0 mi Calm Calm - N/A   Clear
4:38 AM - - - N/A% 30.04 in 1.5 mi Calm Calm - N/A   Clear
4:43 AM - - - N/A% 30.05 in 0.8 mi Calm Calm - N/A   Mist
4:48 AM - - - N/A% 30.05 in 1.2 mi Calm Calm - N/A   Partly Cloudy
4:54 AM - - - N/A% 30.05 in 2.0 mi Calm Calm - N/A   Scattered Clouds
5:11 AM - - - N/A% 30.05 in 3.0 mi Calm Calm - N/A   Partly Cloudy
5:54 AM - - - N/A% 30.06 in 8.0 mi Calm Calm - N/A   Clear
6:54 AM - - - N/A% 30.08 in 7.0 mi Calm Calm - N/A   Clear
7:54 AM 70.0 °F - 66.9 °F 90% 30.08 in 8.0 mi Calm Calm - N/A   Mostly Cloudy
9:54 AM 77.0 °F - 66.9 °F 71% 30.11 in 10.0 mi ENE 4.6 mph - N/A   Scattered Clouds
10:54 AM 81.0 °F 82.7 °F 64.9 °F 58% 30.11 in 10.0 mi ENE 11.5 mph - N/A   Mostly Cloudy
12:10 PM 75.0 °F - 61.0 °F 62% 30.15 in 10.0 mi ENE 12.7 mph - N/A   Scattered Clouds
12:27 PM 73.0 °F - 57.9 °F 59% 30.16 in 10.0 mi NNE 17.3 mph - N/A   Scattered Clouds
12:54 PM 73.9 °F - 57.0 °F 55% 30.16 in 10.0 mi NNE 16.1 mph - N/A   Partly Cloudy
1:54 PM 71.1 °F - 54.0 °F 55% 30.16 in 10.0 mi ENE 13.8 mph - N/A   Clear
2:54 PM 70.0 °F - 55.0 °F 59% 30.17 in 10.0 mi East 13.8 mph - N/A   Partly Cloudy
3:54 PM 70.0 °F - 55.0 °F 59% 30.16 in 10.0 mi East 11.5 mph - N/A   Clear
4:54 PM 69.1 °F - 55.0 °F 61% 30.16 in 10.0 mi East 12.7 mph - N/A   Clear
5:54 PM 66.0 °F - 54.0 °F 65% 30.17 in 10.0 mi East 13.8 mph - N/A   Clear
6:54 PM 62.1 °F - 52.0 °F 70% 30.19 in 10.0 mi ENE 13.8 mph - N/A   Clear
7:54 PM 55.9 °F - 51.1 °F 84% 30.21 in 10.0 mi East 16.1 mph - N/A   Partly Cloudy
8:07 PM 55.9 °F - 51.1 °F 84% 30.22 in 10.0 mi ENE 11.5 mph - N/A   Mostly Cloudy
8:54 PM 55.0 °F - 51.1 °F 86% 30.22 in 10.0 mi East 13.8 mph - N/A   Overcast
9:46 PM 55.0 °F - 51.1 °F 86% 30.24 in 10.0 mi East 9.2 mph - N/A   Overcast
9:54 PM 55.0 °F - 51.1 °F 86% 30.24 in 10.0 mi East 9.2 mph - N/A   Overcast
10:54 PM 54.0 °F - 52.0 °F 93% 30.24 in 9.0 mi ENE 11.5 mph - N/A   Overcast
11:54 PM 54.0 °F - 53.1 °F 97% 30.23 in 3.0 mi ENE 8.1 mph - N/A   Overcast